User: anonymous   Login
Location: Unspecified
(0.0000°N, 0.0000°E)
Time: 03:17:52
(UTC+00:00)
Language:

COSMOS 2501 (GLONASS) - Orbit

View from above orbital plane
View from above orbital plane
View from above satellite
View from above satellite

Ground track
Ground track

The orbit data is extracted from the following two-line orbital elements,

1 40315U 14075A   19053.77923778  .00000005  00000-0  00000+0 0  9992
2 40315  64.0969 283.7197 0014607 207.1608 126.9553  2.13098568 32927
Epoch (UTC): 22 February 2019 18:42:06
Eccentricity: 0.0014607
inclination: 64.0969°
perigee height: 19093 km
apogee height: 19167 km
right ascension of ascending node: 283.7197°
argument of perigee: 207.1608°
revolutions per day: 2.13098568
mean anomaly at epoch: 126.9553°
orbit number at epoch: 3292

The dashed part of the orbit path shows where the satellite is in the earth's shadow,  

DLR